CST,Max TemperatureF,Mean TemperatureF,Min TemperatureF,Max Dew PointF,MeanDew PointF,Min DewpointF,Max Humidity, Mean Humidity, Min Humidity, Max Sea Level PressureIn, Mean Sea Level PressureIn, Min Sea Level PressureIn, Max VisibilityMiles, Mean VisibilityMiles, Min VisibilityMiles, Max Wind SpeedMPH, Mean Wind SpeedMPH, Max Gust SpeedMPH,PrecipitationIn, CloudCover, Events, WindDirDegrees
2013-12-1,50,39,28,31,29,24,92,69,46,30.14,30.07,29.97,9,7,4,10,3,12,0.00,1,,43
2013-12-2,45,39,33,38,34,29,92,79,65,29.95,29.79,29.68,6,5,2,14,7,20,T,6,,103
2013-12-3,52,45,38,49,44,37,100,92,83,29.70,29.67,29.63,5,2,0,15,7,19,0.00,7,Fog,157
2013-12-4,55,44,33,54,46,28,100,91,82,29.84,29.64,29.50,10,4,0,23,10,29,0.01,8,Fog-Rain,175
2013-12-5,33,27,20,26,14,8,82,70,57,30.32,30.13,29.86,10,10,10,22,10,30,0.00,4,,300
2013-12-6,20,16,11,9,5,2,73,61,49,30.64,30.46,30.33,10,10,10,14,8,19,0.00,6,,333
2013-12-7,21,14,6,5,2,0,80,60,39,30.76,30.67,30.58,10,10,10,10,5,17,0.00,0,,3
2013-12-8,25,20,14,22,17,6,88,75,61,30.54,30.16,30.01,10,5,1,20,9,24,0.06,8,Snow,90
2013-12-9,24,14,4,19,8,-3,84,70,56,30.32,30.22,30.03,10,9,6,21,10,26,T,4,,283
2013-12-10,26,14,2,11,5,-4,79,63,46,30.35,30.24,30.14,10,10,10,23,9,33,0.00,2,,245
2013-12-11,24,14,3,15,4,-7,68,56,43,30.67,30.49,30.29,10,10,4,17,7,24,T,4,Snow,333
2013-12-12,32,17,1,14,6,-6,79,62,45,30.63,30.43,30.26,10,10,10,20,7,25,0.00,1,,215
2013-12-13,39,28,17,30,24,12,100,74,48,30.23,30.09,30.02,10,5,1,12,5,15,0.32,6,Snow,136
2013-12-14,32,26,20,30,26,15,100,89,77,30.10,29.99,29.91,10,4,0,16,8,23,0.33,8,Fog-Snow,22
2013-12-15,20,16,12,14,9,6,88,75,61,30.17,30.13,30.07,10,7,1,15,7,23,0.03,7,Snow,309
2013-12-16,21,17,13,19,15,8,100,89,77,30.16,30.10,30.01,10,5,1,13,6,16,0.01,8,Snow,10
2013-12-17,36,28,20,26,20,12,92,73,53,30.23,30.14,30.09,10,6,2,20,10,25,T,5,Snow,270
2013-12-18,38,26,13,29,18,8,88,69,49,30.24,30.05,29.88,10,10,10,22,12,28,0.00,0,,197
2013-12-19,43,38,32,40,35,28,93,84,75,29.91,29.84,29.75,10,7,2,13,8,16,0.01,5,Rain,180
2013-12-20,45,38,30,44,36,27,100,96,92,29.88,29.77,29.72,7,2,0,12,7,15,0.23,8,Fog-Rain,352
2013-12-21,33,31,28,31,28,26,92,89,85,29.90,29.78,29.60,9,4,2,16,7,21,0.28,8,Rain,10
2013-12-22,33,26,18,32,27,14,96,87,78,30.26,29.84,29.61,10,6,1,15,8,21,0.19,8,Rain-Snow,323
2013-12-23,19,11,3,13,5,-6,84,76,67,30.58,30.44,30.24,10,10,5,18,11,23,T,3,Snow,291
2013-12-24,20,9,-2,12,2,-9,80,73,65,30.65,30.53,30.38,10,10,5,17,7,21,0.00,3,,206
2013-12-25,29,25,20,25,21,12,92,80,68,30.35,30.25,30.17,10,8,4,18,11,29,T,8,,238
2013-12-26,37,27,17,30,23,16,85,77,69,30.35,30.27,30.20,10,10,9,16,9,20,0.00,4,,225
2013-12-27,45,34,22,32,28,22,92,75,58,30.34,30.26,30.17,10,8,2,14,7,18,0.00,0,,213
2013-12-28,53,42,31,36,31,27,89,68,46,30.16,30.04,29.90,10,10,10,20,10,25,0.00,0,,202
2013-12-29,38,21,4,30,19,-4,92,81,69,30.31,30.04,29.83,10,7,1,17,10,30,T,6,Rain-Snow,309
2013-12-30,16,8,0,9,1,-7,80,69,58,30.40,30.30,30.19,10,8,2,10,3,17,0.02,5,Snow,228
2013-12-31,23,17,10,13,9,6,84,73,62,30.42,30.30,30.21,10,10,9,18,8,23,T,4,,318